Location: LDNL
(36.4545°S, 141.6685°E)
Time: 12:47:27
(UTC+10:00)

Explorer 7 - Pass Details

Date: 18 August 2022
Orbit: 482 x 668 km, 50.3° (Epoch: 26 September)

Event Time Altitude Azimuth Distance (km) Brightness Sun altitude
Rises 22:56:33 0° 232° (SW) 2,937 - -57.5°
Reaches altitude 10° 22:58:57 10° 232° (SW) 1,996 - -57.8°
Maximum altitude 23:03:32 88° 315° (NW) 599 - -58.5°
Drops below altitude 10° 23:07:48 10° 49° (NE) 1,856 - -59.1°
Sets 23:09:58 0° 49° (NE) 2,714 - -59.5°
